<?xml version="1.0" encoding="UTF-8" standalone="no" ?>
<gpx xmlns="http://www.topografix.com/GPX/1/1" xmlns:xsi="http://www.w3.org/2001/XMLSchema-instance" xsi:schemaLocation="http://www.topografix.com/GPX/1/1 http://www.topografix.com/GPX/1/1/gpx.xsd" version="1.1" creator="VisuGPX - https://www.visugpx.com">
  <metadata>
    <name>Antony_PleissisRob</name>
  </metadata>
  <trk>
    <name><![CDATA[Antony Plessis]]></name>
    <extensions>
      <line xmlns="http://www.topografix.com/GPX/gpx_style/0/2">
        <color>0000FF</color>
        <width>4</width>
      </line>
    </extensions>
    <trkseg>
      <trkpt lat="48.75303" lon="2.28492">
        <ele>83.3</ele>
        <time>2022-09-25T05:52:05.000Z</time>
      </trkpt>
      <trkpt lat="48.75305" lon="2.28506">
        <ele>85.599998474121</ele>
        <time>2022-09-25T05:52:27.000Z</time>
      </trkpt>
      <trkpt lat="48.75277" lon="2.28558">
        <ele>81.800003051758</ele>
        <time>2022-09-25T05:53:01.000Z</time>
      </trkpt>
      <trkpt lat="48.7525" lon="2.28614">
        <ele>79.599998474121</ele>
        <time>2022-09-25T05:53:32.000Z</time>
      </trkpt>
      <trkpt lat="48.75241" lon="2.28671">
        <ele>79</ele>
        <time>2022-09-25T05:54:02.000Z</time>
      </trkpt>
      <trkpt lat="48.75225" lon="2.28736">
        <ele>77.199996948242</ele>
        <time>2022-09-25T05:54:33.000Z</time>
      </trkpt>
      <trkpt lat="48.75208" lon="2.28799">
        <ele>74.199996948242</ele>
        <time>2022-09-25T05:55:04.000Z</time>
      </trkpt>
      <trkpt lat="48.75184" lon="2.28857">
        <ele>73</ele>
        <time>2022-09-25T05:55:35.000Z</time>
      </trkpt>
      <trkpt lat="48.7516" lon="2.28915">
        <ele>69.400001525879</ele>
        <time>2022-09-25T05:56:07.000Z</time>
      </trkpt>
      <trkpt lat="48.75131" lon="2.2897">
        <ele>68</ele>
        <time>2022-09-25T05:56:40.000Z</time>
      </trkpt>
      <trkpt lat="48.75103" lon="2.29023">
        <ele>67</ele>
        <time>2022-09-25T05:57:12.000Z</time>
      </trkpt>
      <trkpt lat="48.75074" lon="2.29075">
        <ele>66</ele>
        <time>2022-09-25T05:57:43.000Z</time>
      </trkpt>
      <trkpt lat="48.75044" lon="2.29126">
        <ele>65.400001525879</ele>
        <time>2022-09-25T05:58:14.000Z</time>
      </trkpt>
      <trkpt lat="48.75017" lon="2.29177">
        <ele>63.1</ele>
        <time>2022-09-25T05:58:45.000Z</time>
      </trkpt>
      <trkpt lat="48.75015" lon="2.29208">
        <ele>64</ele>
        <time>2022-09-25T06:07:20.000Z</time>
      </trkpt>
      <trkpt lat="48.74999" lon="2.29271">
        <ele>63.799999237061</ele>
        <time>2022-09-25T06:07:52.000Z</time>
      </trkpt>
      <trkpt lat="48.74973" lon="2.29327">
        <ele>61</ele>
        <time>2022-09-25T06:08:29.000Z</time>
      </trkpt>
      <trkpt lat="48.74966" lon="2.29342">
        <ele>60</ele>
        <time>2022-09-25T06:08:42.000Z</time>
      </trkpt>
      <trkpt lat="48.74934" lon="2.2939">
        <ele>55.799999237061</ele>
        <time>2022-09-25T06:09:23.000Z</time>
      </trkpt>
      <trkpt lat="48.7493" lon="2.29408">
        <ele>54.400001525879</ele>
        <time>2022-09-25T06:09:30.000Z</time>
      </trkpt>
      <trkpt lat="48.74964" lon="2.29448">
        <ele>56.200000762939</ele>
        <time>2022-09-25T06:10:17.000Z</time>
      </trkpt>
      <trkpt lat="48.74998" lon="2.29495">
        <ele>58.400001525879</ele>
        <time>2022-09-25T06:10:54.000Z</time>
      </trkpt>
      <trkpt lat="48.75037" lon="2.2953">
        <ele>57.799999237061</ele>
        <time>2022-09-25T06:11:32.000Z</time>
      </trkpt>
      <trkpt lat="48.75072" lon="2.29572">
        <ele>56.799999237061</ele>
        <time>2022-09-25T06:12:10.000Z</time>
      </trkpt>
      <trkpt lat="48.75111" lon="2.29609">
        <ele>56.400001525879</ele>
        <time>2022-09-25T06:12:50.000Z</time>
      </trkpt>
      <trkpt lat="48.75124" lon="2.29637">
        <ele>56.400001525879</ele>
        <time>2022-09-25T06:13:13.000Z</time>
      </trkpt>
      <trkpt lat="48.7516" lon="2.29676">
        <ele>57.400001525879</ele>
        <time>2022-09-25T06:13:51.000Z</time>
      </trkpt>
      <trkpt lat="48.75179" lon="2.29698">
        <ele>58</ele>
        <time>2022-09-25T06:14:17.000Z</time>
      </trkpt>
      <trkpt lat="48.75224" lon="2.29686">
        <ele>60</ele>
        <time>2022-09-25T06:14:56.000Z</time>
      </trkpt>
      <trkpt lat="48.75266" lon="2.29663">
        <ele>61.599998474121</ele>
        <time>2022-09-25T06:15:52.000Z</time>
      </trkpt>
      <trkpt lat="48.75295" lon="2.29667">
        <ele>63.400001525879</ele>
        <time>2022-09-25T06:16:11.000Z</time>
      </trkpt>
      <trkpt lat="48.75337" lon="2.2969">
        <ele>65.800003051758</ele>
        <time>2022-09-25T06:16:37.000Z</time>
      </trkpt>
      <trkpt lat="48.7535" lon="2.29697">
        <ele>65.800003051758</ele>
        <time>2022-09-25T06:17:05.000Z</time>
      </trkpt>
      <trkpt lat="48.75395" lon="2.29706">
        <ele>66.800003051758</ele>
        <time>2022-09-25T06:17:53.000Z</time>
      </trkpt>
      <trkpt lat="48.75424" lon="2.29717">
        <ele>65</ele>
        <time>2022-09-25T06:18:23.000Z</time>
      </trkpt>
      <trkpt lat="48.75472" lon="2.29734">
        <ele>64.400001525879</ele>
        <time>2022-09-25T06:18:48.000Z</time>
      </trkpt>
      <trkpt lat="48.75479" lon="2.29739">
        <ele>64.199996948242</ele>
        <time>2022-09-25T06:19:03.000Z</time>
      </trkpt>
      <trkpt lat="48.75463" lon="2.29806">
        <ele>64.199996948242</ele>
        <time>2022-09-25T06:19:38.000Z</time>
      </trkpt>
      <trkpt lat="48.75467" lon="2.29873">
        <ele>62.799999237061</ele>
        <time>2022-09-25T06:20:16.000Z</time>
      </trkpt>
      <trkpt lat="48.7545" lon="2.29923">
        <ele>61.599998474121</ele>
        <time>2022-09-25T06:21:15.000Z</time>
      </trkpt>
      <trkpt lat="48.75453" lon="2.29943">
        <ele>60.599998474121</ele>
        <time>2022-09-25T06:21:30.000Z</time>
      </trkpt>
      <trkpt lat="48.7546" lon="2.29946">
        <ele>60.400001525879</ele>
        <time>2022-09-25T06:21:36.000Z</time>
      </trkpt>
      <trkpt lat="48.75498" lon="2.29966">
        <ele>60.400001525879</ele>
        <time>2022-09-25T06:22:11.000Z</time>
      </trkpt>
      <trkpt lat="48.75523" lon="2.29934">
        <ele>62.599998474121</ele>
        <time>2022-09-25T06:22:35.000Z</time>
      </trkpt>
      <trkpt lat="48.75529" lon="2.29918">
        <ele>62.799999237061</ele>
        <time>2022-09-25T06:22:53.000Z</time>
      </trkpt>
      <trkpt lat="48.75527" lon="2.29901">
        <ele>62</ele>
        <time>2022-09-25T06:22:59.000Z</time>
      </trkpt>
      <trkpt lat="48.75526" lon="2.29881">
        <ele>62.3</ele>
        <time>2022-09-25T06:23:37.000Z</time>
      </trkpt>
      <trkpt lat="48.7553" lon="2.29856">
        <ele>63</ele>
        <time>2022-09-25T06:23:39.000Z</time>
      </trkpt>
      <trkpt lat="48.75542" lon="2.29823">
        <ele>63.9</ele>
      </trkpt>
      <trkpt lat="48.75546" lon="2.29811">
        <ele>64.5</ele>
      </trkpt>
      <trkpt lat="48.75554" lon="2.29811">
        <ele>64.7</ele>
        <time>2022-09-25T06:24:00.000Z</time>
      </trkpt>
      <trkpt lat="48.756" lon="2.29816">
        <ele>69.199996948242</ele>
        <time>2022-09-25T06:24:41.000Z</time>
      </trkpt>
      <trkpt lat="48.75624" lon="2.29817">
        <ele>68.400001525879</ele>
        <time>2022-09-25T06:25:04.000Z</time>
      </trkpt>
      <trkpt lat="48.75643" lon="2.29828">
        <ele>68</ele>
        <time>2022-09-25T06:25:26.000Z</time>
      </trkpt>
      <trkpt lat="48.75651" lon="2.29894">
        <ele>67.400001525879</ele>
        <time>2022-09-25T06:26:02.000Z</time>
      </trkpt>
      <trkpt lat="48.75657" lon="2.29907">
        <ele>66.800003051758</ele>
        <time>2022-09-25T06:26:19.000Z</time>
      </trkpt>
      <trkpt lat="48.75664" lon="2.29916">
        <ele>66</ele>
        <time>2022-09-25T06:26:38.000Z</time>
      </trkpt>
      <trkpt lat="48.75699" lon="2.29936">
        <ele>64</ele>
        <time>2022-09-25T06:27:18.000Z</time>
      </trkpt>
      <trkpt lat="48.75716" lon="2.29872">
        <ele>67.400001525879</ele>
        <time>2022-09-25T06:28:00.000Z</time>
      </trkpt>
      <trkpt lat="48.75743" lon="2.29815">
        <ele>71</ele>
        <time>2022-09-25T06:28:39.000Z</time>
      </trkpt>
      <trkpt lat="48.75775" lon="2.2977">
        <ele>72</ele>
        <time>2022-09-25T06:29:18.000Z</time>
      </trkpt>
      <trkpt lat="48.75807" lon="2.29718">
        <ele>70.400001525879</ele>
        <time>2022-09-25T06:29:58.000Z</time>
      </trkpt>
      <trkpt lat="48.75843" lon="2.2968">
        <ele>70.400001525879</ele>
        <time>2022-09-25T06:30:55.000Z</time>
      </trkpt>
      <trkpt lat="48.75862" lon="2.29653">
        <ele>71.599998474121</ele>
        <time>2022-09-25T06:31:18.000Z</time>
      </trkpt>
      <trkpt lat="48.75903" lon="2.29682">
        <ele>70.199996948242</ele>
        <time>2022-09-25T06:31:52.000Z</time>
      </trkpt>
      <trkpt lat="48.75934" lon="2.29732">
        <ele>69</ele>
        <time>2022-09-25T06:32:32.000Z</time>
      </trkpt>
      <trkpt lat="48.75961" lon="2.2978">
        <ele>68.800003051758</ele>
        <time>2022-09-25T06:33:09.000Z</time>
      </trkpt>
      <trkpt lat="48.75971" lon="2.29797">
        <ele>68.400001525879</ele>
        <time>2022-09-25T06:33:22.000Z</time>
      </trkpt>
      <trkpt lat="48.76006" lon="2.29787">
        <ele>67.400001525879</ele>
        <time>2022-09-25T06:34:04.000Z</time>
      </trkpt>
      <trkpt lat="48.76044" lon="2.29775">
        <ele>64.800003051758</ele>
        <time>2022-09-25T06:34:41.000Z</time>
      </trkpt>
      <trkpt lat="48.76061" lon="2.29838">
        <ele>62.200000762939</ele>
        <time>2022-09-25T06:35:17.000Z</time>
      </trkpt>
      <trkpt lat="48.76075" lon="2.29904">
        <ele>61.799999237061</ele>
        <time>2022-09-25T06:35:55.000Z</time>
      </trkpt>
      <trkpt lat="48.76091" lon="2.29968">
        <ele>61</ele>
        <time>2022-09-25T06:36:33.000Z</time>
      </trkpt>
      <trkpt lat="48.76095" lon="2.29992">
        <ele>60.599998474121</ele>
        <time>2022-09-25T06:36:47.000Z</time>
      </trkpt>
      <trkpt lat="48.76109" lon="2.30056">
        <ele>60.599998474121</ele>
        <time>2022-09-25T06:37:26.000Z</time>
      </trkpt>
      <trkpt lat="48.76142" lon="2.30085">
        <ele>60.400001525879</ele>
        <time>2022-09-25T06:38:08.000Z</time>
      </trkpt>
      <trkpt lat="48.76186" lon="2.30095">
        <ele>59.200000762939</ele>
        <time>2022-09-25T06:38:42.000Z</time>
      </trkpt>
      <trkpt lat="48.76199" lon="2.30099">
        <ele>58.799999237061</ele>
        <time>2022-09-25T06:38:50.000Z</time>
      </trkpt>
      <trkpt lat="48.76203" lon="2.30061">
        <ele>58</ele>
        <time>2022-09-25T06:39:15.000Z</time>
      </trkpt>
      <trkpt lat="48.76205" lon="2.30057">
        <ele>58</ele>
        <time>2022-09-25T06:39:19.000Z</time>
      </trkpt>
      <trkpt lat="48.76213" lon="2.30049">
        <ele>58</ele>
        <time>2022-09-25T06:39:29.000Z</time>
      </trkpt>
      <trkpt lat="48.76217" lon="2.30044">
        <ele>58</ele>
        <time>2022-09-25T06:39:35.000Z</time>
      </trkpt>
      <trkpt lat="48.76222" lon="2.30045">
        <ele>58</ele>
        <time>2022-09-25T06:39:39.000Z</time>
      </trkpt>
      <trkpt lat="48.76232" lon="2.30075">
        <ele>58</ele>
        <time>2022-09-25T06:40:04.000Z</time>
      </trkpt>
      <trkpt lat="48.76237" lon="2.30072">
        <ele>58.200000762939</ele>
        <time>2022-09-25T06:40:11.000Z</time>
      </trkpt>
      <trkpt lat="48.76241" lon="2.30071">
        <ele>58.400001525879</ele>
        <time>2022-09-25T06:40:16.000Z</time>
      </trkpt>
      <trkpt lat="48.76262" lon="2.3007">
        <ele>58.799999237061</ele>
        <time>2022-09-25T06:42:32.000Z</time>
      </trkpt>
      <trkpt lat="48.76272" lon="2.30065">
        <ele>59</ele>
        <time>2022-09-25T06:44:09.000Z</time>
      </trkpt>
      <trkpt lat="48.76305" lon="2.30026">
        <ele>58.200000762939</ele>
        <time>2022-09-25T06:44:47.000Z</time>
      </trkpt>
      <trkpt lat="48.76327" lon="2.29966">
        <ele>58</ele>
        <time>2022-09-25T06:45:23.000Z</time>
      </trkpt>
      <trkpt lat="48.76371" lon="2.29946">
        <ele>55.799999237061</ele>
        <time>2022-09-25T06:46:01.000Z</time>
      </trkpt>
      <trkpt lat="48.76415" lon="2.29931">
        <ele>58</ele>
        <time>2022-09-25T06:46:36.000Z</time>
      </trkpt>
      <trkpt lat="48.7646" lon="2.29916">
        <ele>61.400001525879</ele>
        <time>2022-09-25T06:47:21.000Z</time>
      </trkpt>
      <trkpt lat="48.76504" lon="2.29896">
        <ele>62.200000762939</ele>
        <time>2022-09-25T06:47:59.000Z</time>
      </trkpt>
      <trkpt lat="48.7655" lon="2.29882">
        <ele>61</ele>
        <time>2022-09-25T06:48:41.000Z</time>
      </trkpt>
      <trkpt lat="48.76594" lon="2.29865">
        <ele>59.200000762939</ele>
        <time>2022-09-25T06:49:19.000Z</time>
      </trkpt>
      <trkpt lat="48.76638" lon="2.29847">
        <ele>59.599998474121</ele>
        <time>2022-09-25T06:50:03.000Z</time>
      </trkpt>
      <trkpt lat="48.76683" lon="2.29835">
        <ele>57.599998474121</ele>
        <time>2022-09-25T06:50:37.000Z</time>
      </trkpt>
      <trkpt lat="48.76718" lon="2.29816">
        <ele>55.799999237061</ele>
        <time>2022-09-25T06:51:14.000Z</time>
      </trkpt>
      <trkpt lat="48.76724" lon="2.29804">
        <ele>56</ele>
        <time>2022-09-25T06:51:25.000Z</time>
      </trkpt>
      <trkpt lat="48.76716" lon="2.29773">
        <ele>57.599998474121</ele>
        <time>2022-09-25T06:51:49.000Z</time>
      </trkpt>
      <trkpt lat="48.76705" lon="2.29705">
        <ele>57.799999237061</ele>
        <time>2022-09-25T06:52:28.000Z</time>
      </trkpt>
      <trkpt lat="48.76696" lon="2.29638">
        <ele>59.200000762939</ele>
        <time>2022-09-25T06:53:09.000Z</time>
      </trkpt>
      <trkpt lat="48.76684" lon="2.29571">
        <ele>60.799999237061</ele>
        <time>2022-09-25T06:53:50.000Z</time>
      </trkpt>
      <trkpt lat="48.76674" lon="2.29503">
        <ele>63</ele>
        <time>2022-09-25T06:54:31.000Z</time>
      </trkpt>
      <trkpt lat="48.76677" lon="2.29437">
        <ele>62.799999237061</ele>
        <time>2022-09-25T06:55:12.000Z</time>
      </trkpt>
      <trkpt lat="48.76693" lon="2.29374">
        <ele>65</ele>
        <time>2022-09-25T06:55:53.000Z</time>
      </trkpt>
      <trkpt lat="48.76711" lon="2.29343">
        <ele>66.599998474121</ele>
        <time>2022-09-25T06:56:17.000Z</time>
      </trkpt>
      <trkpt lat="48.7671" lon="2.2933">
        <ele>68.199996948242</ele>
        <time>2022-09-25T06:56:26.000Z</time>
      </trkpt>
      <trkpt lat="48.76703" lon="2.29262">
        <ele>70.599998474121</ele>
        <time>2022-09-25T06:57:08.000Z</time>
      </trkpt>
      <trkpt lat="48.7669" lon="2.29196">
        <ele>69.400001525879</ele>
        <time>2022-09-25T06:57:49.000Z</time>
      </trkpt>
      <trkpt lat="48.76695" lon="2.29136">
        <ele>71.800003051758</ele>
        <time>2022-09-25T06:58:31.000Z</time>
      </trkpt>
      <trkpt lat="48.76707" lon="2.29103">
        <ele>71.800003051758</ele>
        <time>2022-09-25T06:58:57.000Z</time>
      </trkpt>
      <trkpt lat="48.76706" lon="2.29039">
        <ele>74</ele>
        <time>2022-09-25T06:59:40.000Z</time>
      </trkpt>
      <trkpt lat="48.76743" lon="2.28999">
        <ele>76.199996948242</ele>
        <time>2022-09-25T07:00:21.000Z</time>
      </trkpt>
      <trkpt lat="48.76784" lon="2.28965">
        <ele>78</ele>
        <time>2022-09-25T07:01:03.000Z</time>
      </trkpt>
      <trkpt lat="48.76824" lon="2.28932">
        <ele>79.800003051758</ele>
        <time>2022-09-25T07:01:44.000Z</time>
      </trkpt>
      <trkpt lat="48.76863" lon="2.28897">
        <ele>79.599998474121</ele>
        <time>2022-09-25T07:02:28.000Z</time>
      </trkpt>
      <trkpt lat="48.76903" lon="2.28865">
        <ele>80.199996948242</ele>
        <time>2022-09-25T07:03:11.000Z</time>
      </trkpt>
      <trkpt lat="48.76943" lon="2.28833">
        <ele>82.400001525879</ele>
        <time>2022-09-25T07:03:51.000Z</time>
      </trkpt>
      <trkpt lat="48.76983" lon="2.288">
        <ele>85.400001525879</ele>
        <time>2022-09-25T07:04:32.000Z</time>
      </trkpt>
      <trkpt lat="48.77022" lon="2.28764">
        <ele>87.400001525879</ele>
        <time>2022-09-25T07:05:10.000Z</time>
      </trkpt>
      <trkpt lat="48.77062" lon="2.28733">
        <ele>85.199996948242</ele>
        <time>2022-09-25T07:05:48.000Z</time>
      </trkpt>
      <trkpt lat="48.77103" lon="2.28703">
        <ele>83</ele>
        <time>2022-09-25T07:06:31.000Z</time>
      </trkpt>
      <trkpt lat="48.7714" lon="2.28688">
        <ele>82.199996948242</ele>
        <time>2022-09-25T07:08:32.000Z</time>
      </trkpt>
      <trkpt lat="48.77145" lon="2.2869">
        <ele>82</ele>
        <time>2022-09-25T07:08:36.000Z</time>
      </trkpt>
      <trkpt lat="48.7716" lon="2.28686">
        <ele>81</ele>
        <time>2022-09-25T07:08:52.000Z</time>
      </trkpt>
      <trkpt lat="48.77204" lon="2.28668">
        <ele>78.599998474121</ele>
        <time>2022-09-25T07:09:32.000Z</time>
      </trkpt>
      <trkpt lat="48.77249" lon="2.28656">
        <ele>77</ele>
        <time>2022-09-25T07:10:11.000Z</time>
      </trkpt>
      <trkpt lat="48.77274" lon="2.28627">
        <ele>77</ele>
        <time>2022-09-25T07:10:48.000Z</time>
      </trkpt>
      <trkpt lat="48.77282" lon="2.28583">
        <ele>76.800003051758</ele>
        <time>2022-09-25T07:11:22.000Z</time>
      </trkpt>
      <trkpt lat="48.77285" lon="2.28557">
        <ele>78.400001525879</ele>
        <time>2022-09-25T07:11:47.000Z</time>
      </trkpt>
      <trkpt lat="48.77287" lon="2.28546">
        <ele>79</ele>
        <time>2022-09-25T07:11:55.000Z</time>
      </trkpt>
      <trkpt lat="48.77324" lon="2.28514">
        <ele>79</ele>
        <time>2022-09-25T07:12:36.000Z</time>
      </trkpt>
      <trkpt lat="48.77369" lon="2.28514">
        <ele>77</ele>
        <time>2022-09-25T07:13:17.000Z</time>
      </trkpt>
      <trkpt lat="48.77408" lon="2.28485">
        <ele>73.599998474121</ele>
        <time>2022-09-25T07:13:58.000Z</time>
      </trkpt>
      <trkpt lat="48.77426" lon="2.2844">
        <ele>73.199996948242</ele>
        <time>2022-09-25T07:14:32.000Z</time>
      </trkpt>
      <trkpt lat="48.77397" lon="2.28387">
        <ele>74</ele>
        <time>2022-09-25T07:15:17.000Z</time>
      </trkpt>
      <trkpt lat="48.77367" lon="2.28335">
        <ele>76.199996948242</ele>
        <time>2022-09-25T07:15:58.000Z</time>
      </trkpt>
      <trkpt lat="48.77336" lon="2.28285">
        <ele>78.599998474121</ele>
        <time>2022-09-25T07:16:40.000Z</time>
      </trkpt>
      <trkpt lat="48.77307" lon="2.28233">
        <ele>81.800003051758</ele>
        <time>2022-09-25T07:17:23.000Z</time>
      </trkpt>
      <trkpt lat="48.77281" lon="2.28176">
        <ele>84.199996948242</ele>
        <time>2022-09-25T07:18:03.000Z</time>
      </trkpt>
      <trkpt lat="48.77267" lon="2.28117">
        <ele>84.599998474121</ele>
        <time>2022-09-25T07:18:44.000Z</time>
      </trkpt>
      <trkpt lat="48.77306" lon="2.28082">
        <ele>81.599998474121</ele>
        <time>2022-09-25T07:19:29.000Z</time>
      </trkpt>
      <trkpt lat="48.77309" lon="2.2802">
        <ele>83.400001525879</ele>
        <time>2022-09-25T07:20:12.000Z</time>
      </trkpt>
      <trkpt lat="48.77308" lon="2.2797">
        <ele>84.199996948242</ele>
        <time>2022-09-25T07:20:51.000Z</time>
      </trkpt>
      <trkpt lat="48.77296" lon="2.27903">
        <ele>86.199996948242</ele>
        <time>2022-09-25T07:21:38.000Z</time>
      </trkpt>
      <trkpt lat="48.77287" lon="2.27836">
        <ele>87.199996948242</ele>
        <time>2022-09-25T07:22:17.000Z</time>
      </trkpt>
      <trkpt lat="48.77279" lon="2.2777">
        <ele>86.199996948242</ele>
        <time>2022-09-25T07:22:58.000Z</time>
      </trkpt>
      <trkpt lat="48.77278" lon="2.27701">
        <ele>86.199996948242</ele>
        <time>2022-09-25T07:23:39.000Z</time>
      </trkpt>
      <trkpt lat="48.77283" lon="2.27633">
        <ele>87.199996948242</ele>
        <time>2022-09-25T07:24:16.000Z</time>
      </trkpt>
      <trkpt lat="48.77273" lon="2.27568">
        <ele>90.199996948242</ele>
        <time>2022-09-25T07:24:56.000Z</time>
      </trkpt>
      <trkpt lat="48.77291" lon="2.27506">
        <ele>91.199996948242</ele>
        <time>2022-09-25T07:25:39.000Z</time>
      </trkpt>
      <trkpt lat="48.77293" lon="2.27438">
        <ele>90.599998474121</ele>
        <time>2022-09-25T07:26:16.000Z</time>
      </trkpt>
      <trkpt lat="48.77291" lon="2.27372">
        <ele>91.199996948242</ele>
        <time>2022-09-25T07:26:56.000Z</time>
      </trkpt>
      <trkpt lat="48.77283" lon="2.27305">
        <ele>94.199996948242</ele>
        <time>2022-09-25T07:27:34.000Z</time>
      </trkpt>
      <trkpt lat="48.77288" lon="2.27239">
        <ele>97.199996948242</ele>
        <time>2022-09-25T07:28:16.000Z</time>
      </trkpt>
      <trkpt lat="48.77301" lon="2.27176">
        <ele>97.199996948242</ele>
        <time>2022-09-25T07:28:58.000Z</time>
      </trkpt>
      <trkpt lat="48.77321" lon="2.27113">
        <ele>95.800003051758</ele>
        <time>2022-09-25T07:29:38.000Z</time>
      </trkpt>
      <trkpt lat="48.77325" lon="2.27098">
        <ele>97.199996948242</ele>
        <time>2022-09-25T07:29:52.000Z</time>
      </trkpt>
      <trkpt lat="48.77352" lon="2.27043">
        <ele>102</ele>
        <time>2022-09-25T07:30:30.000Z</time>
      </trkpt>
      <trkpt lat="48.77385" lon="2.26997">
        <ele>104</ele>
        <time>2022-09-25T07:31:10.000Z</time>
      </trkpt>
      <trkpt lat="48.7738" lon="2.2698">
        <ele>103.80000305176</ele>
        <time>2022-09-25T07:31:30.000Z</time>
      </trkpt>
      <trkpt lat="48.77377" lon="2.26977">
        <ele>103.59999847412</ele>
        <time>2022-09-25T07:31:33.000Z</time>
      </trkpt>
      <trkpt lat="48.77376" lon="2.26911">
        <ele>107</ele>
        <time>2022-09-25T07:32:17.000Z</time>
      </trkpt>
      <trkpt lat="48.77391" lon="2.26847">
        <ele>109.59999847412</ele>
        <time>2022-09-25T07:32:59.000Z</time>
      </trkpt>
      <trkpt lat="48.77381" lon="2.26812">
        <ele>110.19999694824</ele>
        <time>2022-09-25T07:33:30.000Z</time>
      </trkpt>
      <trkpt lat="48.77377" lon="2.26807">
        <ele>110</ele>
        <time>2022-09-25T07:33:35.000Z</time>
      </trkpt>
      <trkpt lat="48.77367" lon="2.26781">
        <ele>111.40000152588</ele>
        <time>2022-09-25T07:33:59.000Z</time>
      </trkpt>
      <trkpt lat="48.77347" lon="2.26754">
        <ele>113.19999694824</ele>
        <time>2022-09-25T07:34:25.000Z</time>
      </trkpt>
      <trkpt lat="48.77356" lon="2.26717">
        <ele>119.40000152588</ele>
        <time>2022-09-25T07:34:56.000Z</time>
      </trkpt>
      <trkpt lat="48.77358" lon="2.26712">
        <ele>120.19999694824</ele>
        <time>2022-09-25T07:34:59.000Z</time>
      </trkpt>
      <trkpt lat="48.77379" lon="2.26649">
        <ele>127.19999694824</ele>
        <time>2022-09-25T07:35:47.000Z</time>
      </trkpt>
      <trkpt lat="48.7741" lon="2.2664">
        <ele>129.80000305176</ele>
        <time>2022-09-25T07:36:29.000Z</time>
      </trkpt>
      <trkpt lat="48.7741" lon="2.26656">
        <ele>129.19999694824</ele>
        <time>2022-09-25T07:36:37.000Z</time>
      </trkpt>
      <trkpt lat="48.77419" lon="2.26719">
        <ele>125.80000305176</ele>
        <time>2022-09-25T07:37:21.000Z</time>
      </trkpt>
      <trkpt lat="48.77423" lon="2.2672">
        <ele>126.19999694824</ele>
        <time>2022-09-25T07:37:24.000Z</time>
      </trkpt>
      <trkpt lat="48.77467" lon="2.26727">
        <ele>130</ele>
        <time>2022-09-25T07:38:13.000Z</time>
      </trkpt>
      <trkpt lat="48.77468" lon="2.26727">
        <ele>130.19999694824</ele>
        <time>2022-09-25T07:38:14.000Z</time>
      </trkpt>
      <trkpt lat="48.77513" lon="2.26724">
        <ele>133.19999694824</ele>
        <time>2022-09-25T07:38:55.000Z</time>
      </trkpt>
      <trkpt lat="48.77558" lon="2.26717">
        <ele>136.39999389648</ele>
        <time>2022-09-25T07:39:38.000Z</time>
      </trkpt>
      <trkpt lat="48.77544" lon="2.26707">
        <ele>137.39999389648</ele>
        <time>2022-09-25T07:40:45.000Z</time>
      </trkpt>
      <trkpt lat="48.77536" lon="2.26703">
        <ele>137.60000610352</ele>
        <time>2022-09-25T07:40:54.000Z</time>
      </trkpt>
      <trkpt lat="48.775" lon="2.26693">
        <ele>139</ele>
        <time>2022-09-25T07:41:33.000Z</time>
      </trkpt>
      <trkpt lat="48.77519" lon="2.26653">
        <ele>145.60000610352</ele>
        <time>2022-09-25T07:42:49.000Z</time>
      </trkpt>
      <trkpt lat="48.77523" lon="2.2665">
        <ele>146.39999389648</ele>
        <time>2022-09-25T07:42:53.000Z</time>
      </trkpt>
      <trkpt lat="48.77537" lon="2.26627">
        <ele>151.19999694824</ele>
        <time>2022-09-25T07:43:18.000Z</time>
      </trkpt>
      <trkpt lat="48.77565" lon="2.2658">
        <ele>157.19999694824</ele>
        <time>2022-09-25T07:44:53.000Z</time>
      </trkpt>
      <trkpt lat="48.77582" lon="2.26561">
        <ele>160</ele>
        <time>2022-09-25T07:45:20.000Z</time>
      </trkpt>
      <trkpt lat="48.77615" lon="2.26534">
        <ele>166</ele>
        <time>2022-09-25T07:46:14.000Z</time>
      </trkpt>
      <trkpt lat="48.77617" lon="2.26539">
        <ele>166.19999694824</ele>
        <time>2022-09-25T07:46:18.000Z</time>
      </trkpt>
      <trkpt lat="48.77645" lon="2.26594">
        <ele>165</ele>
        <time>2022-09-25T07:46:54.000Z</time>
      </trkpt>
      <trkpt lat="48.77683" lon="2.26629">
        <ele>162.80000305176</ele>
        <time>2022-09-25T07:47:34.000Z</time>
      </trkpt>
      <trkpt lat="48.77715" lon="2.26677">
        <ele>158</ele>
        <time>2022-09-25T07:48:13.000Z</time>
      </trkpt>
      <trkpt lat="48.77719" lon="2.26695">
        <ele>155.19999694824</ele>
        <time>2022-09-25T07:48:27.000Z</time>
      </trkpt>
      <trkpt lat="48.77736" lon="2.26744">
        <ele>150.39999389648</ele>
        <time>2022-09-25T07:49:02.000Z</time>
      </trkpt>
      <trkpt lat="48.77763" lon="2.26741">
        <ele>157.39999389648</ele>
        <time>2022-09-25T07:50:00.000Z</time>
      </trkpt>
      <trkpt lat="48.77767" lon="2.26747">
        <ele>157.80000305176</ele>
        <time>2022-09-25T07:50:06.000Z</time>
      </trkpt>
      <trkpt lat="48.77775" lon="2.26764">
        <ele>158.39999389648</ele>
        <time>2022-09-25T07:50:42.000Z</time>
      </trkpt>
      <trkpt lat="48.77805" lon="2.26816">
        <ele>157.80000305176</ele>
        <time>2022-09-25T07:51:20.000Z</time>
      </trkpt>
      <trkpt lat="48.77826" lon="2.26863">
        <ele>156.80000305176</ele>
        <time>2022-09-25T07:53:09.000Z</time>
      </trkpt>
      <trkpt lat="48.77824" lon="2.26858">
        <ele>157</ele>
        <time>2022-09-25T07:55:31.000Z</time>
      </trkpt>
    </trkseg>
  </trk>
  <trk>
    <name><![CDATA[Le Plessis-Robinson Antony]]></name>
    <extensions>
      <line xmlns="http://www.topografix.com/GPX/gpx_style/0/2">
        <color>ff0019</color>
        <width>4</width>
      </line>
    </extensions>
    <trkseg>
      <trkpt lat="48.77824" lon="2.26864">
        <ele>153.19999694824</ele>
        <time>2022-09-25T07:55:49.000Z</time>
      </trkpt>
      <trkpt lat="48.77839" lon="2.26884">
        <ele>154.39999389648</ele>
        <time>2022-09-25T07:56:25.000Z</time>
      </trkpt>
      <trkpt lat="48.77869" lon="2.26937">
        <ele>155.80000305176</ele>
        <time>2022-09-25T07:57:05.000Z</time>
      </trkpt>
      <trkpt lat="48.77882" lon="2.26937">
        <ele>157.60000610352</ele>
        <time>2022-09-25T07:57:15.000Z</time>
      </trkpt>
      <trkpt lat="48.77912" lon="2.26916">
        <ele>163</ele>
        <time>2022-09-25T07:58:35.000Z</time>
      </trkpt>
      <trkpt lat="48.77921" lon="2.26895">
        <ele>166</ele>
        <time>2022-09-25T07:59:02.000Z</time>
      </trkpt>
      <trkpt lat="48.77926" lon="2.26882">
        <ele>166.19999694824</ele>
        <time>2022-09-25T07:59:13.000Z</time>
      </trkpt>
      <trkpt lat="48.77952" lon="2.26823">
        <ele>166</ele>
        <time>2022-09-25T07:59:54.000Z</time>
      </trkpt>
      <trkpt lat="48.77964" lon="2.26797">
        <ele>165.19999694824</ele>
        <time>2022-09-25T08:00:16.000Z</time>
      </trkpt>
      <trkpt lat="48.77984" lon="2.26733">
        <ele>167</ele>
        <time>2022-09-25T08:00:58.000Z</time>
      </trkpt>
      <trkpt lat="48.7801" lon="2.26676">
        <ele>168.80000305176</ele>
        <time>2022-09-25T08:01:38.000Z</time>
      </trkpt>
      <trkpt lat="48.78037" lon="2.2662">
        <ele>165.39999389648</ele>
        <time>2022-09-25T08:02:14.000Z</time>
      </trkpt>
      <trkpt lat="48.78063" lon="2.26562">
        <ele>161.80000305176</ele>
        <time>2022-09-25T08:02:41.000Z</time>
      </trkpt>
      <trkpt lat="48.78085" lon="2.26502">
        <ele>162.60000610352</ele>
        <time>2022-09-25T08:03:05.000Z</time>
      </trkpt>
      <trkpt lat="48.78084" lon="2.26497">
        <ele>163</ele>
        <time>2022-09-25T08:03:07.000Z</time>
      </trkpt>
      <trkpt lat="48.78056" lon="2.26456">
        <ele>165.19999694824</ele>
        <time>2022-09-25T08:04:23.000Z</time>
      </trkpt>
      <trkpt lat="48.78048" lon="2.2646">
        <ele>166</ele>
        <time>2022-09-25T08:04:34.000Z</time>
      </trkpt>
      <trkpt lat="48.7804" lon="2.2646">
        <ele>166.80000305176</ele>
        <time>2022-09-25T08:04:41.000Z</time>
      </trkpt>
      <trkpt lat="48.78005" lon="2.26458">
        <ele>169.19999694824</ele>
        <time>2022-09-25T08:05:57.000Z</time>
      </trkpt>
      <trkpt lat="48.78002" lon="2.26458">
        <ele>169.19999694824</ele>
        <time>2022-09-25T08:05:59.000Z</time>
      </trkpt>
      <trkpt lat="48.77991" lon="2.26467">
        <ele>169.80000305176</ele>
        <time>2022-09-25T08:06:15.000Z</time>
      </trkpt>
      <trkpt lat="48.77982" lon="2.26472">
        <ele>170</ele>
        <time>2022-09-25T08:06:22.000Z</time>
      </trkpt>
      <trkpt lat="48.77946" lon="2.26512">
        <ele>170.60000610352</ele>
        <time>2022-09-25T08:07:00.000Z</time>
      </trkpt>
      <trkpt lat="48.77939" lon="2.26544">
        <ele>170.39999389648</ele>
        <time>2022-09-25T08:07:20.000Z</time>
      </trkpt>
      <trkpt lat="48.7793" lon="2.26565">
        <ele>170</ele>
        <time>2022-09-25T08:07:38.000Z</time>
      </trkpt>
      <trkpt lat="48.77924" lon="2.26577">
        <ele>170.39999389648</ele>
        <time>2022-09-25T08:07:45.000Z</time>
      </trkpt>
      <trkpt lat="48.77909" lon="2.26597">
        <ele>171.19999694824</ele>
        <time>2022-09-25T08:08:02.000Z</time>
      </trkpt>
      <trkpt lat="48.77894" lon="2.26607">
        <ele>172</ele>
        <time>2022-09-25T08:08:42.000Z</time>
      </trkpt>
      <trkpt lat="48.77896" lon="2.26605">
        <ele>171.80000305176</ele>
        <time>2022-09-25T08:08:44.000Z</time>
      </trkpt>
      <trkpt lat="48.77926" lon="2.26642">
        <ele>171.19999694824</ele>
        <time>2022-09-25T08:09:25.000Z</time>
      </trkpt>
      <trkpt lat="48.77924" lon="2.26654">
        <ele>171.19999694824</ele>
        <time>2022-09-25T08:09:33.000Z</time>
      </trkpt>
      <trkpt lat="48.77922" lon="2.26662">
        <ele>171.19999694824</ele>
        <time>2022-09-25T08:09:39.000Z</time>
      </trkpt>
      <trkpt lat="48.77906" lon="2.26725">
        <ele>168.39999389648</ele>
        <time>2022-09-25T08:10:16.000Z</time>
      </trkpt>
      <trkpt lat="48.77905" lon="2.26735">
        <ele>168</ele>
        <time>2022-09-25T08:10:22.000Z</time>
      </trkpt>
      <trkpt lat="48.77903" lon="2.26743">
        <ele>167.60000610352</ele>
        <time>2022-09-25T08:10:27.000Z</time>
      </trkpt>
      <trkpt lat="48.77903" lon="2.26747">
        <ele>167.39999389648</ele>
        <time>2022-09-25T08:10:29.000Z</time>
      </trkpt>
      <trkpt lat="48.77903" lon="2.26754">
        <ele>167.39999389648</ele>
        <time>2022-09-25T08:10:33.000Z</time>
      </trkpt>
      <trkpt lat="48.7786" lon="2.26762">
        <ele>167.19999694824</ele>
        <time>2022-09-25T08:11:25.000Z</time>
      </trkpt>
      <trkpt lat="48.77858" lon="2.2676">
        <ele>167.19999694824</ele>
        <time>2022-09-25T08:11:31.000Z</time>
      </trkpt>
      <trkpt lat="48.77836" lon="2.26754">
        <ele>164.80000305176</ele>
        <time>2022-09-25T08:12:25.000Z</time>
      </trkpt>
      <trkpt lat="48.77794" lon="2.26729">
        <ele>161</ele>
        <time>2022-09-25T08:13:19.000Z</time>
      </trkpt>
      <trkpt lat="48.77793" lon="2.26731">
        <ele>160.80000305176</ele>
        <time>2022-09-25T08:15:19.000Z</time>
      </trkpt>
      <trkpt lat="48.77779" lon="2.26715">
        <ele>160.39999389648</ele>
        <time>2022-09-25T08:15:35.000Z</time>
      </trkpt>
      <trkpt lat="48.77749" lon="2.26746">
        <ele>151.60000610352</ele>
        <time>2022-09-25T08:16:35.000Z</time>
      </trkpt>
      <trkpt lat="48.77725" lon="2.26717">
        <ele>152.80000305176</ele>
        <time>2022-09-25T08:17:31.000Z</time>
      </trkpt>
      <trkpt lat="48.77726" lon="2.26706">
        <ele>155.60000610352</ele>
        <time>2022-09-25T08:17:38.000Z</time>
      </trkpt>
      <trkpt lat="48.77704" lon="2.26646">
        <ele>160.80000305176</ele>
        <time>2022-09-25T08:18:24.000Z</time>
      </trkpt>
      <trkpt lat="48.77664" lon="2.26614">
        <ele>161.39999389648</ele>
        <time>2022-09-25T08:19:04.000Z</time>
      </trkpt>
      <trkpt lat="48.77632" lon="2.26568">
        <ele>163.80000305176</ele>
        <time>2022-09-25T08:19:47.000Z</time>
      </trkpt>
      <trkpt lat="48.77609" lon="2.26527">
        <ele>163.19999694824</ele>
        <time>2022-09-25T08:20:22.000Z</time>
      </trkpt>
      <trkpt lat="48.77593" lon="2.26541">
        <ele>159.39999389648</ele>
        <time>2022-09-25T08:20:40.000Z</time>
      </trkpt>
      <trkpt lat="48.77563" lon="2.26591">
        <ele>150.60000610352</ele>
        <time>2022-09-25T08:21:26.000Z</time>
      </trkpt>
      <trkpt lat="48.77537" lon="2.26596">
        <ele>144.39999389648</ele>
        <time>2022-09-25T08:21:50.000Z</time>
      </trkpt>
      <trkpt lat="48.77509" lon="2.26605">
        <ele>141.39999389648</ele>
        <time>2022-09-25T08:22:22.000Z</time>
      </trkpt>
      <trkpt lat="48.77488" lon="2.26642">
        <ele>138.60000610352</ele>
        <time>2022-09-25T08:22:57.000Z</time>
      </trkpt>
      <trkpt lat="48.77477" lon="2.26669">
        <ele>136.19999694824</ele>
        <time>2022-09-25T08:24:43.000Z</time>
      </trkpt>
      <trkpt lat="48.77478" lon="2.26661">
        <ele>137.19999694824</ele>
        <time>2022-09-25T08:24:48.000Z</time>
      </trkpt>
      <trkpt lat="48.77477" lon="2.26653">
        <ele>137.19999694824</ele>
        <time>2022-09-25T08:24:52.000Z</time>
      </trkpt>
      <trkpt lat="48.77473" lon="2.26629">
        <ele>136.60000610352</ele>
        <time>2022-09-25T08:25:12.000Z</time>
      </trkpt>
      <trkpt lat="48.77439" lon="2.26637">
        <ele>132.19999694824</ele>
        <time>2022-09-25T08:26:43.000Z</time>
      </trkpt>
      <trkpt lat="48.77426" lon="2.26621">
        <ele>131.80000305176</ele>
        <time>2022-09-25T08:27:06.000Z</time>
      </trkpt>
      <trkpt lat="48.77426" lon="2.26608">
        <ele>131.80000305176</ele>
        <time>2022-09-25T08:27:23.000Z</time>
      </trkpt>
      <trkpt lat="48.77452" lon="2.26566">
        <ele>134.60000610352</ele>
        <time>2022-09-25T08:28:04.000Z</time>
      </trkpt>
      <trkpt lat="48.7746" lon="2.26549">
        <ele>136.39999389648</ele>
        <time>2022-09-25T08:28:17.000Z</time>
      </trkpt>
      <trkpt lat="48.77447" lon="2.26485">
        <ele>137.39999389648</ele>
        <time>2022-09-25T08:29:04.000Z</time>
      </trkpt>
      <trkpt lat="48.77451" lon="2.26431">
        <ele>140.80000305176</ele>
        <time>2022-09-25T08:29:37.000Z</time>
      </trkpt>
      <trkpt lat="48.77426" lon="2.2638">
        <ele>141.19999694824</ele>
        <time>2022-09-25T08:30:47.000Z</time>
      </trkpt>
      <trkpt lat="48.77396" lon="2.26371">
        <ele>137.60000610352</ele>
        <time>2022-09-25T08:31:22.000Z</time>
      </trkpt>
      <trkpt lat="48.77373" lon="2.26372">
        <ele>135.19999694824</ele>
        <time>2022-09-25T08:31:43.000Z</time>
      </trkpt>
      <trkpt lat="48.77337" lon="2.26329">
        <ele>133.80000305176</ele>
        <time>2022-09-25T08:32:21.000Z</time>
      </trkpt>
      <trkpt lat="48.77306" lon="2.2628">
        <ele>137</ele>
        <time>2022-09-25T08:32:56.000Z</time>
      </trkpt>
      <trkpt lat="48.77302" lon="2.26213">
        <ele>141.80000305176</ele>
        <time>2022-09-25T08:33:33.000Z</time>
      </trkpt>
      <trkpt lat="48.7729" lon="2.26187">
        <ele>143</ele>
        <time>2022-09-25T08:34:01.000Z</time>
      </trkpt>
      <trkpt lat="48.77248" lon="2.26158">
        <ele>142.80000305176</ele>
        <time>2022-09-25T08:34:58.000Z</time>
      </trkpt>
      <trkpt lat="48.77239" lon="2.26152">
        <ele>142.80000305176</ele>
        <time>2022-09-25T08:35:10.000Z</time>
      </trkpt>
      <trkpt lat="48.77207" lon="2.26103">
        <ele>146</ele>
        <time>2022-09-25T08:35:51.000Z</time>
      </trkpt>
      <trkpt lat="48.77186" lon="2.26088">
        <ele>145.80000305176</ele>
        <time>2022-09-25T08:36:11.000Z</time>
      </trkpt>
      <trkpt lat="48.77142" lon="2.26069">
        <ele>141.39999389648</ele>
        <time>2022-09-25T08:36:51.000Z</time>
      </trkpt>
      <trkpt lat="48.77098" lon="2.26056">
        <ele>136.80000305176</ele>
        <time>2022-09-25T08:37:35.000Z</time>
      </trkpt>
      <trkpt lat="48.77055" lon="2.26036">
        <ele>136</ele>
        <time>2022-09-25T08:38:21.000Z</time>
      </trkpt>
      <trkpt lat="48.77039" lon="2.26049">
        <ele>136</ele>
        <time>2022-09-25T08:38:38.000Z</time>
      </trkpt>
      <trkpt lat="48.76997" lon="2.26056">
        <ele>136.39999389648</ele>
        <time>2022-09-25T08:39:23.000Z</time>
      </trkpt>
      <trkpt lat="48.76953" lon="2.26042">
        <ele>138.80000305176</ele>
        <time>2022-09-25T08:40:09.000Z</time>
      </trkpt>
      <trkpt lat="48.7693" lon="2.26058">
        <ele>141.80000305176</ele>
        <time>2022-09-25T08:40:36.000Z</time>
      </trkpt>
      <trkpt lat="48.7693" lon="2.26103">
        <ele>143</ele>
        <time>2022-09-25T08:41:10.000Z</time>
      </trkpt>
      <trkpt lat="48.76924" lon="2.26153">
        <ele>144.39999389648</ele>
        <time>2022-09-25T08:41:44.000Z</time>
      </trkpt>
      <trkpt lat="48.76897" lon="2.26202">
        <ele>143</ele>
        <time>2022-09-25T08:42:28.000Z</time>
      </trkpt>
      <trkpt lat="48.76862" lon="2.26196">
        <ele>144.80000305176</ele>
        <time>2022-09-25T08:43:10.000Z</time>
      </trkpt>
      <trkpt lat="48.76829" lon="2.26151">
        <ele>149.80000305176</ele>
        <time>2022-09-25T08:43:54.000Z</time>
      </trkpt>
      <trkpt lat="48.76815" lon="2.26149">
        <ele>151.80000305176</ele>
        <time>2022-09-25T08:44:06.000Z</time>
      </trkpt>
      <trkpt lat="48.76803" lon="2.26175">
        <ele>153.19999694824</ele>
        <time>2022-09-25T08:45:32.000Z</time>
      </trkpt>
      <trkpt lat="48.76774" lon="2.26203">
        <ele>155.39999389648</ele>
        <time>2022-09-25T08:46:26.000Z</time>
      </trkpt>
      <trkpt lat="48.76746" lon="2.26179">
        <ele>156.80000305176</ele>
        <time>2022-09-25T08:47:23.000Z</time>
      </trkpt>
      <trkpt lat="48.76745" lon="2.26173">
        <ele>157</ele>
        <time>2022-09-25T08:47:28.000Z</time>
      </trkpt>
      <trkpt lat="48.76747" lon="2.26174">
        <ele>157</ele>
        <time>2022-09-25T08:47:55.000Z</time>
      </trkpt>
      <trkpt lat="48.76748" lon="2.26168">
        <ele>157.39999389648</ele>
        <time>2022-09-25T08:48:12.000Z</time>
      </trkpt>
      <trkpt lat="48.76744" lon="2.26147">
        <ele>158.19999694824</ele>
        <time>2022-09-25T08:48:30.000Z</time>
      </trkpt>
      <trkpt lat="48.76708" lon="2.26149">
        <ele>157.80000305176</ele>
        <time>2022-09-25T08:49:18.000Z</time>
      </trkpt>
      <trkpt lat="48.76708" lon="2.2615">
        <ele>157.60000610352</ele>
        <time>2022-09-25T08:49:19.000Z</time>
      </trkpt>
      <trkpt lat="48.76711" lon="2.26112">
        <ele>155.8</ele>
        <time>2022-09-25T08:49:27.000Z</time>
      </trkpt>
      <trkpt lat="48.76705" lon="2.2607">
        <ele>156.7</ele>
        <time>2022-09-25T08:51:16.000Z</time>
      </trkpt>
      <trkpt lat="48.76688" lon="2.26074">
        <ele>160</ele>
        <time>2022-09-25T08:51:53.000Z</time>
      </trkpt>
      <trkpt lat="48.76673" lon="2.26073">
        <ele>158.39999389648</ele>
        <time>2022-09-25T08:52:19.000Z</time>
      </trkpt>
      <trkpt lat="48.7667" lon="2.26074">
        <ele>158</ele>
        <time>2022-09-25T08:52:22.000Z</time>
      </trkpt>
      <trkpt lat="48.76625" lon="2.26079">
        <ele>153.19999694824</ele>
        <time>2022-09-25T08:52:57.000Z</time>
      </trkpt>
      <trkpt lat="48.76615" lon="2.26084">
        <ele>152</ele>
        <time>2022-09-25T08:53:13.000Z</time>
      </trkpt>
      <trkpt lat="48.76599" lon="2.26049">
        <ele>150.39999389648</ele>
        <time>2022-09-25T08:54:17.000Z</time>
      </trkpt>
      <trkpt lat="48.76561" lon="2.26038">
        <ele>146.19999694824</ele>
        <time>2022-09-25T08:55:11.000Z</time>
      </trkpt>
      <trkpt lat="48.76554" lon="2.26026">
        <ele>145.39999389648</ele>
        <time>2022-09-25T08:55:31.000Z</time>
      </trkpt>
      <trkpt lat="48.76543" lon="2.26002">
        <ele>144.39999389648</ele>
        <time>2022-09-25T08:57:21.000Z</time>
      </trkpt>
      <trkpt lat="48.76546" lon="2.25999">
        <ele>144.60000610352</ele>
        <time>2022-09-25T08:57:22.000Z</time>
      </trkpt>
      <trkpt lat="48.7655" lon="2.25993">
        <ele>145.19999694824</ele>
        <time>2022-09-25T08:57:27.000Z</time>
      </trkpt>
      <trkpt lat="48.76557" lon="2.25939">
        <ele>146.80000305176</ele>
        <time>2022-09-25T08:58:04.000Z</time>
      </trkpt>
      <trkpt lat="48.76555" lon="2.25924">
        <ele>147.39999389648</ele>
        <time>2022-09-25T08:58:17.000Z</time>
      </trkpt>
      <trkpt lat="48.76578" lon="2.25863">
        <ele>150.80000305176</ele>
        <time>2022-09-25T08:58:50.000Z</time>
      </trkpt>
      <trkpt lat="48.7656" lon="2.25845">
        <ele>148</ele>
        <time>2022-09-25T08:59:14.000Z</time>
      </trkpt>
      <trkpt lat="48.76527" lon="2.25843">
        <ele>143</ele>
        <time>2022-09-25T08:59:44.000Z</time>
      </trkpt>
      <trkpt lat="48.76496" lon="2.25833">
        <ele>141.19999694824</ele>
        <time>2022-09-25T09:00:23.000Z</time>
      </trkpt>
      <trkpt lat="48.76482" lon="2.25778">
        <ele>144.39999389648</ele>
        <time>2022-09-25T09:01:48.000Z</time>
      </trkpt>
      <trkpt lat="48.76475" lon="2.25763">
        <ele>145</ele>
        <time>2022-09-25T09:02:06.000Z</time>
      </trkpt>
      <trkpt lat="48.76464" lon="2.25717">
        <ele>149.19999694824</ele>
        <time>2022-09-25T09:02:46.000Z</time>
      </trkpt>
      <trkpt lat="48.76455" lon="2.25685">
        <ele>153.19999694824</ele>
        <time>2022-09-25T09:03:10.000Z</time>
      </trkpt>
      <trkpt lat="48.76435" lon="2.25626">
        <ele>158.39999389648</ele>
        <time>2022-09-25T09:04:08.000Z</time>
      </trkpt>
      <trkpt lat="48.76408" lon="2.25619">
        <ele>156.39999389648</ele>
        <time>2022-09-25T09:04:55.000Z</time>
      </trkpt>
      <trkpt lat="48.76407" lon="2.25622">
        <ele>156</ele>
        <time>2022-09-25T09:04:57.000Z</time>
      </trkpt>
      <trkpt lat="48.76374" lon="2.25615">
        <ele>153.39999389648</ele>
        <time>2022-09-25T09:05:38.000Z</time>
      </trkpt>
      <trkpt lat="48.7637" lon="2.25582">
        <ele>155.39999389648</ele>
        <time>2022-09-25T09:06:03.000Z</time>
      </trkpt>
      <trkpt lat="48.76351" lon="2.25527">
        <ele>156.80000305176</ele>
        <time>2022-09-25T09:06:54.000Z</time>
      </trkpt>
      <trkpt lat="48.76353" lon="2.25509">
        <ele>158</ele>
        <time>2022-09-25T09:07:07.000Z</time>
      </trkpt>
      <trkpt lat="48.76349" lon="2.25443">
        <ele>160.19999694824</ele>
        <time>2022-09-25T09:08:02.000Z</time>
      </trkpt>
      <trkpt lat="48.76349" lon="2.25423">
        <ele>161</ele>
        <time>2022-09-25T09:08:18.000Z</time>
      </trkpt>
      <trkpt lat="48.76327" lon="2.25401">
        <ele>159.39999389648</ele>
        <time>2022-09-25T09:10:05.000Z</time>
      </trkpt>
      <trkpt lat="48.76308" lon="2.25387">
        <ele>157.60000610352</ele>
        <time>2022-09-25T09:10:46.000Z</time>
      </trkpt>
      <trkpt lat="48.76266" lon="2.2537">
        <ele>154.19999694824</ele>
        <time>2022-09-25T09:11:25.000Z</time>
      </trkpt>
      <trkpt lat="48.76241" lon="2.25379">
        <ele>154.60000610352</ele>
        <time>2022-09-25T09:12:14.000Z</time>
      </trkpt>
      <trkpt lat="48.76233" lon="2.2533">
        <ele>156</ele>
        <time>2022-09-25T09:12:46.000Z</time>
      </trkpt>
      <trkpt lat="48.76238" lon="2.2528">
        <ele>157</ele>
        <time>2022-09-25T09:14:31.000Z</time>
      </trkpt>
      <trkpt lat="48.7624" lon="2.25276">
        <ele>157.39999389648</ele>
        <time>2022-09-25T09:14:34.000Z</time>
      </trkpt>
      <trkpt lat="48.76242" lon="2.25273">
        <ele>157.60000610352</ele>
        <time>2022-09-25T09:14:37.000Z</time>
      </trkpt>
      <trkpt lat="48.76257" lon="2.25255">
        <ele>159.80000305176</ele>
        <time>2022-09-25T09:14:57.000Z</time>
      </trkpt>
      <trkpt lat="48.76292" lon="2.2521">
        <ele>162.39999389648</ele>
        <time>2022-09-25T09:15:45.000Z</time>
      </trkpt>
      <trkpt lat="48.76328" lon="2.25168">
        <ele>164.60000610352</ele>
        <time>2022-09-25T09:16:27.000Z</time>
      </trkpt>
      <trkpt lat="48.76376" lon="2.25121">
        <ele>165</ele>
        <time>2022-09-25T09:17:09.000Z</time>
      </trkpt>
      <trkpt lat="48.76366" lon="2.25091">
        <ele>167.80000305176</ele>
        <time>2022-09-25T09:20:17.000Z</time>
      </trkpt>
      <trkpt lat="48.76364" lon="2.25087">
        <ele>168</ele>
        <time>2022-09-25T09:20:19.000Z</time>
      </trkpt>
      <trkpt lat="48.76351" lon="2.25024">
        <ele>167.80000305176</ele>
        <time>2022-09-25T09:20:54.000Z</time>
      </trkpt>
      <trkpt lat="48.76348" lon="2.24955">
        <ele>167.60000610352</ele>
        <time>2022-09-25T09:21:29.000Z</time>
      </trkpt>
      <trkpt lat="48.76358" lon="2.24914">
        <ele>168</ele>
        <time>2022-09-25T09:22:04.000Z</time>
      </trkpt>
      <trkpt lat="48.76358" lon="2.24849">
        <ele>167.39999389648</ele>
        <time>2022-09-25T09:22:53.000Z</time>
      </trkpt>
      <trkpt lat="48.7635" lon="2.2483">
        <ele>167</ele>
        <time>2022-09-25T09:23:18.000Z</time>
      </trkpt>
      <trkpt lat="48.76333" lon="2.24766">
        <ele>166.80000305176</ele>
        <time>2022-09-25T09:24:02.000Z</time>
      </trkpt>
      <trkpt lat="48.76311" lon="2.24705">
        <ele>168</ele>
        <time>2022-09-25T09:24:42.000Z</time>
      </trkpt>
      <trkpt lat="48.76292" lon="2.24642">
        <ele>170.39999389648</ele>
        <time>2022-09-25T09:25:24.000Z</time>
      </trkpt>
      <trkpt lat="48.76286" lon="2.24615">
        <ele>171.19999694824</ele>
        <time>2022-09-25T09:25:48.000Z</time>
      </trkpt>
      <trkpt lat="48.76265" lon="2.24554">
        <ele>173.19999694824</ele>
        <time>2022-09-25T09:26:30.000Z</time>
      </trkpt>
      <trkpt lat="48.76245" lon="2.24544">
        <ele>174.19999694824</ele>
        <time>2022-09-25T09:27:05.000Z</time>
      </trkpt>
      <trkpt lat="48.7624" lon="2.2455">
        <ele>174.19999694824</ele>
        <time>2022-09-25T09:27:12.000Z</time>
      </trkpt>
      <trkpt lat="48.76203" lon="2.24591">
        <ele>174.19999694824</ele>
        <time>2022-09-25T09:27:54.000Z</time>
      </trkpt>
      <trkpt lat="48.76164" lon="2.24626">
        <ele>173.39999389648</ele>
        <time>2022-09-25T09:28:34.000Z</time>
      </trkpt>
      <trkpt lat="48.76125" lon="2.2466">
        <ele>175.19999694824</ele>
        <time>2022-09-25T09:29:11.000Z</time>
      </trkpt>
      <trkpt lat="48.76087" lon="2.24698">
        <ele>175.19999694824</ele>
        <time>2022-09-25T09:29:55.000Z</time>
      </trkpt>
      <trkpt lat="48.76044" lon="2.24719">
        <ele>174.60000610352</ele>
        <time>2022-09-25T09:30:31.000Z</time>
      </trkpt>
      <trkpt lat="48.76004" lon="2.24751">
        <ele>174.39999389648</ele>
        <time>2022-09-25T09:31:11.000Z</time>
      </trkpt>
      <trkpt lat="48.75959" lon="2.24769">
        <ele>175.19999694824</ele>
        <time>2022-09-25T09:31:50.000Z</time>
      </trkpt>
      <trkpt lat="48.75915" lon="2.24789">
        <ele>175.39999389648</ele>
        <time>2022-09-25T09:32:29.000Z</time>
      </trkpt>
      <trkpt lat="48.75887" lon="2.2482">
        <ele>176.39999389648</ele>
        <time>2022-09-25T09:33:50.000Z</time>
      </trkpt>
      <trkpt lat="48.75883" lon="2.24855">
        <ele>176.39999389648</ele>
        <time>2022-09-25T09:34:16.000Z</time>
      </trkpt>
      <trkpt lat="48.7587" lon="2.24922">
        <ele>177.80000305176</ele>
        <time>2022-09-25T09:34:53.000Z</time>
      </trkpt>
      <trkpt lat="48.75859" lon="2.24989">
        <ele>177.80000305176</ele>
        <time>2022-09-25T09:35:31.000Z</time>
      </trkpt>
      <trkpt lat="48.75849" lon="2.25056">
        <ele>177.80000305176</ele>
        <time>2022-09-25T09:36:08.000Z</time>
      </trkpt>
      <trkpt lat="48.75838" lon="2.25122">
        <ele>176.60000610352</ele>
        <time>2022-09-25T09:36:46.000Z</time>
      </trkpt>
      <trkpt lat="48.75816" lon="2.25163">
        <ele>176</ele>
        <time>2022-09-25T09:37:18.000Z</time>
      </trkpt>
      <trkpt lat="48.75809" lon="2.25227">
        <ele>174.39999389648</ele>
        <time>2022-09-25T09:37:58.000Z</time>
      </trkpt>
      <trkpt lat="48.75804" lon="2.25291">
        <ele>173.19999694824</ele>
        <time>2022-09-25T09:38:52.000Z</time>
      </trkpt>
      <trkpt lat="48.7579" lon="2.25355">
        <ele>172</ele>
        <time>2022-09-25T09:39:53.000Z</time>
      </trkpt>
      <trkpt lat="48.7579" lon="2.25357">
        <ele>172</ele>
        <time>2022-09-25T09:39:54.000Z</time>
      </trkpt>
      <trkpt lat="48.75783" lon="2.25413">
        <ele>172.39999389648</ele>
        <time>2022-09-25T09:40:31.000Z</time>
      </trkpt>
      <trkpt lat="48.75771" lon="2.25479">
        <ele>172.19999694824</ele>
        <time>2022-09-25T09:41:08.000Z</time>
      </trkpt>
      <trkpt lat="48.75766" lon="2.25505">
        <ele>172.19999694824</ele>
        <time>2022-09-25T09:41:24.000Z</time>
      </trkpt>
      <trkpt lat="48.75755" lon="2.25571">
        <ele>171.80000305176</ele>
        <time>2022-09-25T09:42:01.000Z</time>
      </trkpt>
      <trkpt lat="48.75753" lon="2.25579">
        <ele>171.80000305176</ele>
        <time>2022-09-25T09:42:06.000Z</time>
      </trkpt>
      <trkpt lat="48.75744" lon="2.25646">
        <ele>172.80000305176</ele>
        <time>2022-09-25T09:42:45.000Z</time>
      </trkpt>
      <trkpt lat="48.75749" lon="2.25672">
        <ele>172.60000610352</ele>
        <time>2022-09-25T09:43:07.000Z</time>
      </trkpt>
      <trkpt lat="48.75769" lon="2.25735">
        <ele>172</ele>
        <time>2022-09-25T09:43:52.000Z</time>
      </trkpt>
      <trkpt lat="48.7578" lon="2.25801">
        <ele>172.19999694824</ele>
        <time>2022-09-25T09:44:35.000Z</time>
      </trkpt>
      <trkpt lat="48.75792" lon="2.25826">
        <ele>172.60000610352</ele>
        <time>2022-09-25T09:44:53.000Z</time>
      </trkpt>
      <trkpt lat="48.75808" lon="2.25891">
        <ele>171.80000305176</ele>
        <time>2022-09-25T09:45:33.000Z</time>
      </trkpt>
      <trkpt lat="48.75826" lon="2.25954">
        <ele>171.39999389648</ele>
        <time>2022-09-25T09:46:18.000Z</time>
      </trkpt>
      <trkpt lat="48.75845" lon="2.25994">
        <ele>171.60000610352</ele>
        <time>2022-09-25T09:46:48.000Z</time>
      </trkpt>
      <trkpt lat="48.75881" lon="2.26037">
        <ele>167.80000305176</ele>
        <time>2022-09-25T09:47:31.000Z</time>
      </trkpt>
      <trkpt lat="48.75903" lon="2.26063">
        <ele>165</ele>
        <time>2022-09-25T09:47:59.000Z</time>
      </trkpt>
      <trkpt lat="48.7591" lon="2.26126">
        <ele>161.60000610352</ele>
        <time>2022-09-25T09:48:36.000Z</time>
      </trkpt>
      <trkpt lat="48.75899" lon="2.26193">
        <ele>156</ele>
        <time>2022-09-25T09:49:16.000Z</time>
      </trkpt>
      <trkpt lat="48.75895" lon="2.26261">
        <ele>151</ele>
        <time>2022-09-25T09:49:54.000Z</time>
      </trkpt>
      <trkpt lat="48.75867" lon="2.26311">
        <ele>149</ele>
        <time>2022-09-25T09:50:31.000Z</time>
      </trkpt>
      <trkpt lat="48.75825" lon="2.26302">
        <ele>145.80000305176</ele>
        <time>2022-09-25T09:51:09.000Z</time>
      </trkpt>
      <trkpt lat="48.75803" lon="2.26245">
        <ele>145</ele>
        <time>2022-09-25T09:51:48.000Z</time>
      </trkpt>
      <trkpt lat="48.75783" lon="2.26185">
        <ele>146</ele>
        <time>2022-09-25T09:52:27.000Z</time>
      </trkpt>
      <trkpt lat="48.75741" lon="2.26161">
        <ele>142.60000610352</ele>
        <time>2022-09-25T09:53:07.000Z</time>
      </trkpt>
      <trkpt lat="48.75702" lon="2.26195">
        <ele>136.39999389648</ele>
        <time>2022-09-25T09:53:45.000Z</time>
      </trkpt>
      <trkpt lat="48.75699" lon="2.26218">
        <ele>135.19999694824</ele>
        <time>2022-09-25T09:54:23.000Z</time>
      </trkpt>
      <trkpt lat="48.7571" lon="2.26281">
        <ele>134.19999694824</ele>
        <time>2022-09-25T09:55:06.000Z</time>
      </trkpt>
      <trkpt lat="48.75739" lon="2.26334">
        <ele>135.39999389648</ele>
        <time>2022-09-25T09:55:46.000Z</time>
      </trkpt>
      <trkpt lat="48.75773" lon="2.26379">
        <ele>136.60000610352</ele>
        <time>2022-09-25T09:56:29.000Z</time>
      </trkpt>
      <trkpt lat="48.75782" lon="2.2642">
        <ele>135</ele>
        <time>2022-09-25T09:57:09.000Z</time>
      </trkpt>
      <trkpt lat="48.75788" lon="2.26458">
        <ele>134</ele>
        <time>2022-09-25T09:57:35.000Z</time>
      </trkpt>
      <trkpt lat="48.75794" lon="2.26469">
        <ele>133.60000610352</ele>
        <time>2022-09-25T09:57:48.000Z</time>
      </trkpt>
      <trkpt lat="48.75795" lon="2.26495">
        <ele>133</ele>
        <time>2022-09-25T09:58:07.000Z</time>
      </trkpt>
      <trkpt lat="48.75822" lon="2.26548">
        <ele>128.60000610352</ele>
        <time>2022-09-25T09:59:01.000Z</time>
      </trkpt>
      <trkpt lat="48.75827" lon="2.26597">
        <ele>124</ele>
        <time>2022-09-25T09:59:57.000Z</time>
      </trkpt>
      <trkpt lat="48.75819" lon="2.26619">
        <ele>121.80000305176</ele>
        <time>2022-09-25T10:00:13.000Z</time>
      </trkpt>
      <trkpt lat="48.7582" lon="2.26687">
        <ele>114.59999847412</ele>
        <time>2022-09-25T10:00:55.000Z</time>
      </trkpt>
      <trkpt lat="48.75819" lon="2.26708">
        <ele>113</ele>
        <time>2022-09-25T10:01:20.000Z</time>
      </trkpt>
      <trkpt lat="48.75812" lon="2.26776">
        <ele>107.80000305176</ele>
        <time>2022-09-25T10:01:59.000Z</time>
      </trkpt>
      <trkpt lat="48.758" lon="2.26842">
        <ele>104.19999694824</ele>
        <time>2022-09-25T10:02:35.000Z</time>
      </trkpt>
      <trkpt lat="48.7578" lon="2.26903">
        <ele>101.40000152588</ele>
        <time>2022-09-25T10:03:11.000Z</time>
      </trkpt>
      <trkpt lat="48.75753" lon="2.26938">
        <ele>100.40000152588</ele>
        <time>2022-09-25T10:04:00.000Z</time>
      </trkpt>
      <trkpt lat="48.75739" lon="2.26948">
        <ele>100.19999694824</ele>
        <time>2022-09-25T10:04:31.000Z</time>
      </trkpt>
      <trkpt lat="48.75709" lon="2.27001">
        <ele>97.400001525879</ele>
        <time>2022-09-25T10:05:09.000Z</time>
      </trkpt>
      <trkpt lat="48.75687" lon="2.27062">
        <ele>95.400001525879</ele>
        <time>2022-09-25T10:05:48.000Z</time>
      </trkpt>
      <trkpt lat="48.75661" lon="2.27119">
        <ele>94</ele>
        <time>2022-09-25T10:06:23.000Z</time>
      </trkpt>
      <trkpt lat="48.75629" lon="2.27168">
        <ele>93</ele>
        <time>2022-09-25T10:07:02.000Z</time>
      </trkpt>
      <trkpt lat="48.75596" lon="2.27212">
        <ele>91</ele>
        <time>2022-09-25T10:07:37.000Z</time>
      </trkpt>
      <trkpt lat="48.75567" lon="2.27265">
        <ele>89.800003051758</ele>
        <time>2022-09-25T10:08:15.000Z</time>
      </trkpt>
      <trkpt lat="48.75536" lon="2.27316">
        <ele>88.599998474121</ele>
        <time>2022-09-25T10:08:52.000Z</time>
      </trkpt>
      <trkpt lat="48.75504" lon="2.27364">
        <ele>88.599998474121</ele>
        <time>2022-09-25T10:09:27.000Z</time>
      </trkpt>
      <trkpt lat="48.75487" lon="2.2739">
        <ele>89</ele>
        <time>2022-09-25T10:09:47.000Z</time>
      </trkpt>
      <trkpt lat="48.75452" lon="2.27427">
        <ele>89</ele>
        <time>2022-09-25T10:10:39.000Z</time>
      </trkpt>
      <trkpt lat="48.75447" lon="2.27433">
        <ele>88.800003051758</ele>
        <time>2022-09-25T10:11:11.000Z</time>
      </trkpt>
      <trkpt lat="48.75446" lon="2.27435">
        <ele>88.800003051758</ele>
        <time>2022-09-25T10:11:13.000Z</time>
      </trkpt>
      <trkpt lat="48.75419" lon="2.2749">
        <ele>88.199996948242</ele>
        <time>2022-09-25T10:11:50.000Z</time>
      </trkpt>
      <trkpt lat="48.75388" lon="2.2754">
        <ele>88.800003051758</ele>
        <time>2022-09-25T10:12:26.000Z</time>
      </trkpt>
      <trkpt lat="48.75348" lon="2.27572">
        <ele>88</ele>
        <time>2022-09-25T10:13:05.000Z</time>
      </trkpt>
      <trkpt lat="48.75319" lon="2.27623">
        <ele>87.800003051758</ele>
        <time>2022-09-25T10:13:41.000Z</time>
      </trkpt>
      <trkpt lat="48.75282" lon="2.27666">
        <ele>85</ele>
        <time>2022-09-25T10:14:19.000Z</time>
      </trkpt>
      <trkpt lat="48.75247" lon="2.27709">
        <ele>82.199996948242</ele>
        <time>2022-09-25T10:14:55.000Z</time>
      </trkpt>
      <trkpt lat="48.75207" lon="2.27739">
        <ele>82.599998474121</ele>
        <time>2022-09-25T10:15:31.000Z</time>
      </trkpt>
      <trkpt lat="48.75165" lon="2.27765">
        <ele>83.400001525879</ele>
        <time>2022-09-25T10:16:11.000Z</time>
      </trkpt>
      <trkpt lat="48.75135" lon="2.27789">
        <ele>83.599998474121</ele>
        <time>2022-09-25T10:16:43.000Z</time>
      </trkpt>
      <trkpt lat="48.75129" lon="2.27801">
        <ele>83.400001525879</ele>
        <time>2022-09-25T10:16:53.000Z</time>
      </trkpt>
      <trkpt lat="48.75122" lon="2.27869">
        <ele>82.599998474121</ele>
        <time>2022-09-25T10:17:32.000Z</time>
      </trkpt>
      <trkpt lat="48.75101" lon="2.27929">
        <ele>79.599998474121</ele>
        <time>2022-09-25T10:18:09.000Z</time>
      </trkpt>
      <trkpt lat="48.75098" lon="2.27991">
        <ele>78.199996948242</ele>
        <time>2022-09-25T10:18:48.000Z</time>
      </trkpt>
      <trkpt lat="48.75103" lon="2.28002">
        <ele>78</ele>
        <time>2022-09-25T10:18:57.000Z</time>
      </trkpt>
      <trkpt lat="48.75101" lon="2.28014">
        <ele>77.800003051758</ele>
        <time>2022-09-25T10:19:03.000Z</time>
      </trkpt>
      <trkpt lat="48.75129" lon="2.28067">
        <ele>78</ele>
        <time>2022-09-25T10:19:44.000Z</time>
      </trkpt>
      <trkpt lat="48.75151" lon="2.28128">
        <ele>79.199996948242</ele>
        <time>2022-09-25T10:20:26.000Z</time>
      </trkpt>
      <trkpt lat="48.75144" lon="2.28195">
        <ele>78.400001525879</ele>
        <time>2022-09-25T10:21:07.000Z</time>
      </trkpt>
      <trkpt lat="48.75144" lon="2.28216">
        <ele>78.400001525879</ele>
        <time>2022-09-25T10:21:25.000Z</time>
      </trkpt>
      <trkpt lat="48.75146" lon="2.28219">
        <ele>78.400001525879</ele>
        <time>2022-09-25T10:21:28.000Z</time>
      </trkpt>
      <trkpt lat="48.7518" lon="2.28262">
        <ele>80.599998474121</ele>
        <time>2022-09-25T10:22:05.000Z</time>
      </trkpt>
      <trkpt lat="48.75222" lon="2.28288">
        <ele>81.400001525879</ele>
        <time>2022-09-25T10:22:38.000Z</time>
      </trkpt>
      <trkpt lat="48.75264" lon="2.28316">
        <ele>81.800003051758</ele>
        <time>2022-09-25T10:23:13.000Z</time>
      </trkpt>
      <trkpt lat="48.75306" lon="2.28338">
        <ele>84.199996948242</ele>
        <time>2022-09-25T10:23:48.000Z</time>
      </trkpt>
      <trkpt lat="48.75319" lon="2.28343">
        <ele>85</ele>
        <time>2022-09-25T10:24:00.000Z</time>
      </trkpt>
      <trkpt lat="48.7535" lon="2.28361">
        <ele>87.199996948242</ele>
        <time>2022-09-25T10:24:25.000Z</time>
      </trkpt>
      <trkpt lat="48.75351" lon="2.28364">
        <ele>87.199996948242</ele>
        <time>2022-09-25T10:24:27.000Z</time>
      </trkpt>
      <trkpt lat="48.75339" lon="2.28425">
        <ele>87</ele>
        <time>2022-09-25T10:25:00.000Z</time>
      </trkpt>
      <trkpt lat="48.75309" lon="2.28477">
        <ele>84.400001525879</ele>
        <time>2022-09-25T10:25:33.000Z</time>
      </trkpt>
      <trkpt lat="48.75307" lon="2.28486">
        <ele>84.199996948242</ele>
        <time>2022-09-25T10:25:38.000Z</time>
      </trkpt>
      <trkpt lat="48.75311" lon="2.28492">
        <ele>84</ele>
        <time>2022-09-25T10:25:42.000Z</time>
      </trkpt>
    </trkseg>
  </trk>
</gpx>